Regional Weather Roundup
Issued by NWS Boston, MA

Home | Current Version | Previous Version | Text Only | Print | Product List | Glossary On
Versions: 1 2 3 4 5 6 7 8 9 10 11 12 13 14 15 16 17 18 19 20 21 22 23 24 25 26 27 28 29 30 31 32 33 34 35 36 37 38 39 40 41 42 43 44 45 46 47 48 49 50
017
ASUS41 KBOX 171010
RWRBOX

REGIONAL WEATHER ROUNDUP
NATIONAL WEATHER SERVICE TAUNTON MA
500 AM EST TUE JAN 17 2017

NOTE:  "FAIR" INDICATES FEW OR NO CLOUDS BELOW 12,000 FEET WITH NO
SIGNIFICANT WEATHER AND/OR OBSTRUCTIONS TO VISIBILITY.

MAZALL-171100-
EASTERN MASSACHUSETTS

CITY           SKY/WX    TMP DP  RH WIND       PRES   REMARKS
BOSTON         PTCLDY    33  19  56 W5        30.20S WCI  29
BEVERLY        PTCLDY    28  18  66 W6        30.18S WCI  22
LAWRENCE       CLEAR     26  18  71 CALM      30.20F
BEDFORD        CLOUDY    22  16  78 SW3       30.18S
BLUE HILL        N/A     30  17  58 W13       30.16R WCI  20
NORWOOD        CLOUDY    24  20  84 CALM      30.20R
MARSHFIELD     CLEAR     30  21  69 VRB3      30.20R
PLYMOUTH       PTCLDY    27  21  78 CALM      30.20R
TAUNTON        PTCLDY    26  21  81 CALM      30.20R
NEW BEDFORD    CLOUDY    34  26  72 S3        30.19F
$$

MAZALL-171100-
CAPE COD AND THE ISLANDS

CITY           SKY/WX    TMP DP  RH WIND       PRES   REMARKS
FALMOUTH       PTCLDY    30  27  86 MISG      30.21R
HYANNIS        PTCLDY    33  25  72 W5        30.19R WCI  29
CHATHAM        PTCLDY    32  25  75 W3        30.21R
PROVINCETOWN   CLEAR     37  26  64 NW10      30.20S WCI  30
NANTUCKET      CLOUDY    39  32  76 W9        30.20F
MARTHAS VNYRD  CLOUDY    40  31  70 W8        30.20S
$$

MAZALL-171100-
CENTRAL AND WESTERN MASSACHUSETTS

CITY           SKY/WX    TMP DP  RH WIND       PRES   REMARKS
WORCESTER      CLOUDY    33  15  47 W16       30.15S WCI  23
FITCHBURG      CLOUDY    33  18  53 N9        30.19S WCI  25
ORANGE         CLOUDY    17  16  95 CALM      30.20S
SPRINGFIELD    PTCLDY    22  20  89 CALM      30.20S
WESTFIELD      CLOUDY    26  22  84 CALM      30.21S
NORTH ADAMS    CLOUDY    15  12  88 CALM      30.23S
PITTSFIELD     CLOUDY    21  17  84 CALM      30.17S
$$

RIZALL-171100-
RHODE ISLAND

CITY           SKY/WX    TMP DP  RH WIND       PRES   REMARKS
PROVIDENCE     MOCLDY    32  24  72 SW3       30.21S
NEWPORT        MOCLDY    35  28  75 VRB3      30.20S
SMITHFIELD     CLOUDY    32  20  61 W5        30.19R WCI  27
WESTERLY       CLOUDY    38  27  64 CALM      30.21F
$$

CTZALL-171100-
CONNECTICUT

CITY           SKY/WX    TMP DP  RH WIND       PRES   REMARKS
BRADLEY INTL   CLOUDY    29  23  78 CALM      30.22R
HARTFORD       CLOUDY    31  27  85 CALM      30.23R
BRIDGEPORT     CLOUDY    39  27  62 W5        30.22F
DANBURY        CLOUDY    34  26  72 W3        30.22S
GROTON         MOCLDY    37  28  70 CALM      30.21S
NEW HAVEN      CLOUDY    37  28  70 CALM      30.22S
CHESTER        CLOUDY    36  27  69 NW3       30.20R
MERIDEN        CLOUDY    33  28  81 CALM      30.22R
WILLIMANTIC    CLOUDY    30  25  81 CALM      30.22R
OXFORD         CLOUDY    36  23  60 CALM      30.20S
$$

MEZ002-015-021-024-NHZ003-005-008-011-012-014-VTZ005-008-171100-
NORTHERN NEW ENGLAND

CITY           SKY/WX    TMP DP  RH WIND       PRES   REMARKS
PORTLAND ME    CLEAR     22  16  78 NW3       30.18R
BANGOR ME      CLOUDY    31  18  58 NW5       30.16R WCI  26
CONCORD NH     CLEAR     15  11  83 CALM      30.18F
MANCHESTER NH  NOT AVBL
NASHUA NH      NOT AVBL
PORTSMOUTH NH  PTCLDY    29  16  58 W5        30.16F WCI  24
JAFFREY NH     NOT AVBL
KEENE NH       NOT AVBL
BURLINGTON VT  CLEAR     19  15  84 S3        30.21F
MT. WASHINGTON MOCLDY    14  10  85 NW56        N/A  WCI -12
$$

NYZ052-076-171100-
EASTERN NEW YORK

CITY           SKY/WX    TMP DP  RH WIND       PRES   REMARKS
ALBANY         CLOUDY    21  16  81 CALM      30.23S
NEW YORK CITY  CLOUDY    42  28  57 W8        30.22F
$$

ANZALL-171100-
MARINE OBSERVATIONS

STATION/POSITION TIME  TEMP    WIND        PRES    VSBY  WAVE
                       AIR SEA DIR/SP/G                  HT/PER
                 (UTC) (F)     (DEG/KT/KT) (MB)    (MI)  (FT/S)
BOSTON BUOY      0850   38 45  270/ 16/ 17 1021.5          2/ 3
BUZZARDS BAY     0900   39     260/ 17/ 18 1023.3S
NANTUCKET SOUND  0850   40 39  240/ 10/ 10 1022.7          1/ 3
MASS BAY-STELLWA 0904   38 44  290/ 16/ 19 1021.3R  1 7/8  3/ 4
ISLE OF SHOALS   0900   36     280/ 18/ 21 1021.4R
S OF BLOCK IS    0955      45                N/A           4/ 6
$$

......................KEY.........................
  SKY/WX - SKY CONDITION/PRESENT WEATHER
  TMP    - TEMPERATURE IN FAHRENHEIT
  DWPT   - DEWPOINT IN FAHRENHEIT
  RH     - RELATIVE HUMIDITY IN PERCENT
  WIND   - DIRECTION AND SPEED IN MPH
  PRES   - MEAN SEA LEVEL PRESSURE IN INCHES OF HG
  WCI    - WIND CHILL INDEX
  VSB    - VISIBILITY IN MILES
  HX     - HEAT INDEX
  TC     - TEMPERATURE IN CELSIUS
  VRB    - VARIABLE WIND DIRECTION
  N/A    - NOT AVAILABLE




USA.gov is the U.S. government's official web portal to all federal, state and local government web resources and services.